W5GED Weather Reports


Display with metric or nautical units.
time (UTC)temp
F
wind
direction
speed
MPH
gust
MPH
rain 1hr
in
rain 24hr
in
rain mn
in
humidity
%
barometer
mb
20260906104017 79 343 0.0 1.0 0.00 0.47 0.00 94 1012.0
20260906103017 79 357 0.0 1.0 0.00 0.47 0.00 94 1012.0
20260906102017 79 180 0.0 1.0 0.00 0.47 0.00 93 1011.8
20260906101017 79 353 0.0 1.0 0.00 0.47 0.00 93 1011.8
20260906100017 79 53 0.0 1.0 0.00 0.47 0.00 93 1011.7
20260906095019 79 28 1.0 1.0 0.00 0.47 0.00 93 1011.7
20260906094037 80 352 0.0 1.0 0.00 0.47 0.00 93 1011.5
20260906093038 80 45 0.0 1.0 0.00 0.47 0.00 93 1011.5
20260906092058 80 19 1.0 1.0 0.00 0.47 0.00 92 1011.5
20260906091018 80 166 0.0 1.0 0.00 0.47 0.00 92 1011.5
20260906090018 80 44 0.0 1.0 0.00 0.47 0.00 92 1011.6
20260906084018 80 29 1.0 2.0 0.00 0.47 0.00 91 1011.4
20260906083019 80 29 1.0 2.0 0.00 0.47 0.00 91 1011.5
20260906081019 80 304 0.0 1.0 0.00 0.47 0.00 90 1011.5
20260906080019 81 88 0.0 1.0 0.00 0.47 0.00 90 1011.5
20260906074539 81 140 0.0 1.0 0.00 0.47 0.00 89 1011.6
20260906072519 81 181 0.0 2.0 0.00 0.47 0.00 89 1011.8
20260906071520 81 240 0.0 1.0 0.00 0.47 0.00 89 1011.8
20260906070520 81 200 0.0 1.0 0.00 0.47 0.00 89 1011.9
20260906065020 81 240 1.0 1.0 0.00 0.47 0.00 89 1012.1
20260906063520 81 238 1.0 2.0 0.00 0.47 0.00 88 1012.1
20260906062520 81 179 1.0 2.0 0.00 0.47 0.00 88 1012.0
20260906061520 81 165 2.0 3.0 0.00 0.47 0.00 88 1012.0
20260906060520 81 153 1.0 2.0 0.00 0.47 0.00 87 1012.0
20260906055520 81 308 0.0 0.0 0.00 0.47 0.00 87 1012.0
20260906054521 81 160 1.0 2.0 0.00 0.47 0.00 87 1011.9
20260906053521 82 144 1.0 3.0 0.00 0.47 0.00 86 1012.0
20260906052601 82 162 1.0 2.0 0.00 0.47 0.00 86 1012.0
20260906051521 82 166 2.0 3.0 0.00 0.47 0.00 85 1012.1
20260906050521 82 174 2.0 3.0 0.00 0.47 0.00 85 1012.1
20260906045521 82 168 2.0 3.0 0.00 0.47 0.47 85 1012.2
20260906044522 82 177 1.0 3.0 0.00 0.47 0.47 85 1012.2
20260906043522 82 179 1.0 3.0 0.00 0.47 0.47 85 1012.1
20260906042521 82 160 1.0 4.0 0.00 0.47 0.47 85 1012.1
20260906041522 82 173 2.0 3.0 0.00 0.47 0.47 85 1012.2
20260906040522 82 160 1.0 2.0 0.00 0.47 0.47 85 1012.2
20260906035522 82 162 1.0 3.0 0.00 0.47 0.47 85 1012.3
20260906034542 82 341 1.0 2.0 0.00 0.47 0.47 85 1012.3
20260906033543 82 196 1.0 2.0 0.00 0.47 0.47 86 1012.2
20260906032522 81 121 1.0 2.0 0.00 0.47 0.47 87 1012.2
20260906031522 82 23 0.0 1.0 0.00 0.47 0.47 87 1012.2
20260906030523 82 332 0.0 1.0 0.00 0.47 0.47 86 1012.1
20260906025523 82 174 0.0 1.0 0.00 0.47 0.47 85 1011.9
20260906024523 82 197 1.0 2.0 0.00 0.47 0.47 86 1011.9
20260906023603 83 59 1.0 2.0 0.00 0.47 0.47 85 1011.7
20260906022523 83 37 1.0 2.0 0.00 0.47 0.47 84 1011.6
20260906021524 83 195 1.0 2.0 0.00 0.47 0.47 83 1011.4
20260906020524 83 19 1.0 1.0 0.00 0.47 0.47 82 1011.2
20260906015544 83 64 1.0 2.0 0.00 0.47 0.47 82 1011.1
20260906014524 84 63 2.0 3.0 0.00 0.47 0.47 81 1011.0
20260906013524 84 39 1.0 2.0 0.00 0.47 0.47 80 1011.1
20260906012524 84 74 1.0 4.0 0.00 0.47 0.47 79 1011.0
20260906011524 83 54 1.0 2.0 0.00 0.47 0.47 80 1010.9
20260906010524 83 35 1.0 2.0 0.00 0.47 0.47 83 1010.9
20260906005525 83 16 1.0 2.0 0.00 0.47 0.47 85 1010.9
20260906004524 83 357 1.0 2.0 0.00 0.47 0.47 87 1011.0
20260906003525 83 0 1.0 2.0 0.00 0.47 0.47 87 1011.0
20260906002525 83 16 1.0 1.0 0.00 0.47 0.47 87 1011.1
20260906001525 84 349 0.0 1.0 0.00 0.47 0.47 86 1011.2
20260906000545 84 29 0.0 1.0 0.00 0.47 0.47 86 1011.2
20260905235525 84 353 1.0 2.0 0.00 0.47 0.47 85 1011.2
20260905234525 84 81 1.0 2.0 0.00 0.47 0.47 85 1011.2
20260905233526 84 26 1.0 2.0 0.00 0.47 0.47 84 1011.4
20260905232545 84 36 2.0 2.0 0.00 0.47 0.47 84 1011.4
20260905231546 84 19 1.0 2.0 0.00 0.47 0.47 85 1011.2
20260905230526 83 38 1.0 2.0 0.00 0.47 0.47 87 1011.2
20260905225546 82 30 1.0 2.0 0.00 0.47 0.47 88 1011.2
20260905224526 82 31 1.0 2.0 0.00 0.47 0.47 89 1011.0
20260905223517 81 41 1.0 2.0 0.00 0.47 0.47 89 1011.0
20260905222526 81 31 1.0 3.0 0.00 0.47 0.47 91 1011.0
20260905221607 81 173 0.0 2.0 0.01 0.47 0.47 91 1011.0
20260905220527 80 139 1.0 2.0 0.06 0.47 0.47 90 1011.1
20260905215527 80 222 1.0 1.0 0.10 0.47 0.47 90 1010.9
20260905214527 79 82 2.0 4.0 0.12 0.47 0.47 91 1011.0
20260905213547 79 104 2.0 4.0 0.12 0.47 0.47 91 1011.1
20260905212517 78 81 2.0 6.0 0.22 0.47 0.47 90 1011.4
20260905211517 79 70 3.0 9.0 0.46 0.46 0.46 87 1011.8
20260905210517 81 91 3.0 6.0 0.41 0.41 0.41 88 1011.8
20260905205517 83 104 3.0 8.0 0.37 0.37 0.37 84 1011.4
20260905204518 83 153 1.0 5.0 0.35 0.35 0.35 85 1011.4
20260905203518 83 198 3.0 9.0 0.35 0.35 0.35 86 1011.3
20260905202518 89 351 3.0 5.0 0.25 0.25 0.25 76 1011.5
20260905201518 91 190 3.0 7.0 0.00 0.00 0.00 62 1011.3
20260905200518 95 175 3.0 7.0 0.00 0.00 0.00 53 1011.4
20260905195518 97 205 2.0 7.0 0.00 0.00 0.00 48 1011.4
20260905194518 98 215 3.0 5.0 0.00 0.00 0.00 47 1011.5
20260905193519 98 55 3.0 7.0 0.00 0.00 0.00 48 1011.5
20260905192519 97 356 2.0 5.0 0.00 0.00 0.00 48 1011.6
20260905191519 96 41 2.0 7.0 0.00 0.01 0.00 50 1011.7
20260905190519 96 42 2.0 6.0 0.00 0.03 0.00 51 1011.9
20260905185516 95 24 3.0 9.0 0.00 0.05 0.00 52 1012.0
20260905184536 95 346 2.0 6.0 0.00 0.05 0.00 53 1012.1
20260905183519 97 25 2.0 6.0 0.00 0.05 0.00 50 1012.2
20260905182540 96 299 3.0 7.0 0.00 0.05 0.00 50 1012.4
20260905181517 95 344 3.0 7.0 0.00 0.05 0.00 53 1012.7
20260905180517 94 35 3.0 7.0 0.00 0.05 0.00 53 1012.9
20260905175517 94 41 3.0 7.0 0.00 0.05 0.00 53 1013.0
20260905174517 93 16 3.0 6.0 0.00 0.05 0.00 56 1013.2
20260905173517 92 7 3.0 9.0 0.00 0.05 0.00 56 1013.3
20260905172540 93 38 3.0 5.0 0.00 0.05 0.00 59 1013.4
20260905171537 93 288 2.0 6.0 0.00 0.05 0.00 56 1013.5
20260905170537 93 279 3.0 8.0 0.00 0.05 0.00 58 1013.5
20260905165518 94 279 3.0 9.0 0.00 0.05 0.00 55 1013.6
20260905164538 92 12 2.0 8.0 0.00 0.05 0.00 57 1013.7
20260905163518 91 16 2.0 6.0 0.00 0.06 0.00 58 1013.7
20260905162537 89 261 1.0 3.0 0.00 0.07 0.00 60 1013.8
20260905161518 89 256 0.0 2.0 0.00 0.25 0.00 65 1013.8
20260905160518 88 275 1.0 3.0 0.00 0.43 0.00 66 1013.7
20260905155518 89 270 1.0 3.0 0.00 0.43 0.00 67 1013.7
20260905154518 90 218 1.0 3.0 0.00 0.43 0.00 67 1013.8
20260905153519 90 256 1.0 3.0 0.00 0.43 0.00 65 1013.8
20260905152519 87 36 2.0 5.0 0.00 0.43 0.00 72 1013.8
20260905151539 88 133 2.0 4.0 0.00 0.43 0.00 70 1013.9
20260905150519 87 264 1.0 3.0 0.00 0.43 0.00 74 1013.9
20260905145516 87 294 3.0 5.0 0.00 0.43 0.00 74 1013.9
20260905144516 87 296 1.0 5.0 0.00 0.43 0.00 76 1013.8
20260905143519 86 264 1.0 3.0 0.00 0.43 0.00 80 1013.8
20260905142520 86 136 1.0 4.0 0.00 0.43 0.00 80 1013.8
20260905141519 87 207 1.0 3.0 0.00 0.43 0.00 79 1013.8
20260905140516 87 98 1.0 3.0 0.00 0.43 0.00 78 1013.7
20260905135537 86 349 1.0 3.0 0.00 0.43 0.00 81 1013.6
20260905134517 85 36 1.0 3.0 0.00 0.43 0.00 83 1013.6
20260905133517 83 35 1.0 2.0 0.00 0.43 0.00 86 1013.6
20260905132517 82 30 1.0 3.0 0.00 0.43 0.00 89 1013.6
20260905131518 81 40 2.0 4.0 0.00 0.43 0.00 92 1013.6
20260905130537 80 48 2.0 2.0 0.00 0.43 0.00 95 1013.5
20260905125521 78 64 1.0 2.0 0.00 0.43 0.00 97 1013.4
20260905124520 77 39 1.0 1.0 0.00 0.43 0.00 97 1013.3
20260905123520 77 53 0.0 1.0 0.00 0.43 0.00 97 1013.2
20260905122521 77 205 0.0 1.0 0.00 0.43 0.00 97 1013.1
20260905121521 77 48 1.0 1.0 0.00 0.43 0.00 97 1013.1
20260905120521 76 40 0.0 1.0 0.00 0.43 0.00 97 1012.9
20260905115521 76 0.0 0.0 0.00 0.43 0.00 97 1012.8
20260905114521 77 105 0.0 0.0 0.00 0.43 0.00 97 1012.7
20260905113521 77 231 0.0 1.0 0.00 0.43 0.00 97 1012.6
20260905112522 77 34 1.0 1.0 0.00 0.43 0.00 97 1012.5
20260905111541 77 47 0.0 1.0 0.00 0.43 0.00 97 1012.4
20260905110521 77 332 0.0 1.0 0.00 0.43 0.00 97 1012.3
20260905105542 77 204 0.0 1.0 0.00 0.43 0.00 97 1012.3
20260905104522 77 156 0.0 1.0 0.00 0.43 0.00 97 1012.2